Location: Unspecified
(0.0000°N, 0.0000°E)
Time: 09:27:28
(UTC+02:00)

N. Korean satellite - Visible Passes

Search period start: 22 August 2017 00:00
Search period end: 01 September 2017 00:00
Orbit: 462 x 515 km, 97.2° (Epoch: 21 August)

Date Brightness Start Highest point End Pass type
(mag) Time Alt. Az. Time Alt. Az. Time Alt. Az.
22 Aug 7.3 20:44:00 10° S 20:47:26 55° W 20:50:55 10° NNW visible
25 Aug 9.3 21:08:58 10° SSW 21:11:40 21° W 21:14:24 10° NW visible
26 Aug 7.4 20:45:12 10° S 20:48:38 52° W 20:52:07 10° NNW visible
27 Aug 6.6 20:22:07 10° SSE 20:25:36 57° E 20:29:08 10° N visible
29 Aug 9.4 21:10:10 10° SSW 21:12:50 20° W 21:15:32 10° NW visible
30 Aug 7.6 20:46:20 10° S 20:49:47 49° W 20:53:18 10° NNW visible
31 Aug 6.6 20:23:13 10° SSE 20:26:46 62° ENE 20:30:20 10° N visible
